Regional Weather Roundup
Issued by NWS

Home | Current Version | Previous Version | Graphics & Text | Print | Product List | Glossary On
Versions: 1 2 3 4 5 6 7 8 9 10 11 12 13 14 15 16 17 18 19 20 21 22 23 24 25 26 27 28 29 30 31 32 33 34 35 36 37 38 39 40 41 42 43 44 45 46 47 48 49 50
000
ASUS45 KSLC 031010
RWRUT

UTAH REGIONAL WEATHER ROUNDUP
NATIONAL WEATHER SERVICE SALT LAKE CITY UT
300 AM MST TUE MAR 03 2015

UTZ001>011-023>025-031100-

NORTHERN UTAH

CITY           SKY/WX    TMP DP  RH WIND       PRES   REMARKS
BRIGHAM CITY   CLOUDY    35  32  89 S7        29.80F WCI  29
HILL AFB       CLOUDY    33  32  99 S13       29.79S WCI  23
LOGAN          CLOUDY    32  29  88 NW3       29.78R
OGDEN          FLURRIES  34  32  92 S6        29.79F WCI  29
PROVO AIRPORT  CLOUDY    36  30  80 CALM      29.83F
SALT LAKE CITY CLOUDY    34  32  92 SE8       29.77S WCI  27
VERNAL         MOCLDY    32  28  85 SW7       29.75R WCI  26
WENDOVER       CLOUDY    36  25  64 W9        29.80F WCI  29
HEBER CITY     CLOUDY    32  28  86 W6        29.78F WCI  26
WEST JORDAN    PTCLDY    32  32 100 S5        29.81F WCI  27

$$

UTZ012>022-026-027-031100-

SOUTHERN/CENTRAL UTAH

CITY           SKY/WX    TMP DP  RH WIND       PRES   REMARKS
BLANDING       MOCLDY    29  29 100 W5        29.95F WCI  24
BRYCE CANYON   CLOUDY    15  12  88 N5        29.87F WCI   8
CEDAR CITY     CLOUDY    29  26  89 S7        29.88S WCI  22
DELTA          CLOUDY    32  30  93 S7        29.84F WCI  25
HANKSVILLE     CLEAR     37  28  70 SW7       29.86R WCI  32
MILFORD        PTCLDY    31  27  85 S14       29.86F WCI  21
MOAB/CYNLANDS  CLOUDY    36  29  75 SW3       29.81S
PRICE          MOCLDY    31  25  78 E8        29.78S WCI  23
ST GEORGE      CLOUDY    39  36  87 S5        29.96F
KANAB            N/A     32  32 100 CALM      29.95F

$$

REGIONAL REPORTS     COLORADO/ARIZONA

CITY           SKY/WX    TMP DP  RH WIND       PRES   REMARKS
CRAIG, CO      CLOUDY    33  25  72 SW20G25   29.70S WCI  21
GRAND JUNCTION PTCLDY    35  26  69 NE7       29.80R WCI  29
RIFLE          CLOUDY    35  27  72 W8        29.77S WCI  29
MONTROSE       PTCLDY    34  22  61 E7        29.84R WCI  28
CORTEZ         CLOUDY    34  26  72 S10       29.91S WCI  26
PAGE, AZ       NOT AVBL
GRAND CANYON   CLOUDY    29  28  96 SW12      29.93F WCI  19
KINGMAN        CLEAR     34  31  88 S9        29.93F WCI  27
FLAGSTAFF      NOT AVBL

$$

REGIONAL REPORTS    NEVADA/IDAHO/WYOMING

CITY           SKY/WX    TMP DP  RH WIND       PRES   REMARKS
LAS VEGAS, NV  CLEAR     45  36  70 SW8       29.89F
ELY            PTCLDY    22  20  92 S6        29.86S WCI  14
ELKO           CLOUDY    31  29  92 SW9       29.83S WCI  23
POCATELLO, ID  CLOUDY    33  21  61 SW28      29.74R WCI  20
BURLEY         CLOUDY    31  23  72 W18G29    29.77R WCI  19
EVANSTON, WY   MOCLDY    21  19  92 SW9       29.73F WCI  11
ROCK SPRINGS   FLURRIES  23  20  88 W20       29.71R WCI   8
KEMMERER       FLURRIES  23  21  93 SW10      29.71R WCI  12

$$


USA.gov is the U.S. government's official web portal to all federal, state and local government web resources and services.